User: anonymous
Location: Unspecified
(0.0000°N, 0.0000°E)
Time: 05:12:19
(UTC+02:00)
Language:

Cosmos 1953 Rocket - Orbit

View from above orbital plane
View from above orbital plane
View from above satellite
View from above satellite

Ground track
Ground track

The orbit data is extracted from the following two-line orbital elements,

1 19211U 88050B   14238.10313303  .00000199  00000-0  21878-4 0  3204
2 19211 082.5242 081.8273 0020769 255.6930 254.0967 14.82435675414739
Epoch (UTC): 26 August 2014 02:28:30
Eccentricity: 0.0020769
inclination: 82.5242°
perigee height: 607 km
apogee height: 636 km
right ascension of ascending node: 81.8273°
argument of perigee: 255.6930°
revolutions per day: 14.82435675
mean anomaly at epoch: 254.0967°
orbit number at epoch: 41473

The dashed part of the orbit path shows where the satellite is in the earth's shadow,  

DLR